Find Starlink 2460

NORAD ID: 48120 Int'l Des: 2021-027 Owner: SPXS Country: US Constellation: starlink operational
LEOCIRCULAR

現在のビュー

3D地球を読み込み中...

About Starlink 2460

Starlink 2460 (NORAD 48120) is a starlink constellation satellite (v1.0) launched Apr 7, 2021 by SPXS of US. It operates in LEO, CIRCULAR orbit with a mass of 260.00 kg.

次回通過

Passes for default location (London). Set your location on the main map for personalized predictions.

高度履歴

Loading altitude history...

軌道要素

1 48120U 21027AE 26251.58335648 .00147631 00000-0 23627-2 0 9999
2 48120 53.1570 25.1732 0001366 77.1784 183.8760 15.52142591 5753
Epoch: Sep 8, 2026 • Age: 6 hours

現在のステータス

高度 413.9 km
遠地点 / 近地点 N/A
速度 7.67 km/s
衛星直下点 43.33°N, 122.2°W
打ち上げ日 Apr 7, 2021
運用期間 5.4 years
タイプ internet

技術仕様

分類 Payload
質量 260.00 kg
乾燥質量 248.00 kg
総質量 260.00 kg
長さ 0.20 m
直径 2.80 m
スパン 9.00 m
形状 Box + pan
製造者 SPXS
バスタイプ Starlink
フェーズステータス In Orbit
所有者/国 SPXS/US

Most Searched